Location: Ku?niki
(51.4449°N, 17.8974°E)
Time: 03:34:43
(UTC+00:00)

Cosmos 372 Rocket - Pass Details

Date: 18 September 2020
Orbit: 739 x 767 km, 74.1° (Epoch: 22 October)

Event Time Altitude Azimuth Distance (km) Brightness Sun altitude
Rises 18:44:45 0° 204° (SSW) 3,225 7.2 -17.3°
Reaches altitude 10° 18:47:07 10° 204° (SSW) 2,301 6.5 -17.6°
Maximum altitude 18:52:21 87° 292° (WNW) 773 4.0 -18.4°
Drops below altitude 10° 18:57:37 10° 24° (NNE) 2,305 6.5 -19.1°
Sets 18:59:59 0° 25° (NNE) 3,231 7.3 -19.4°
